TimeAKDT,TemperatureF,Dew PointF,Humidity,Sea Level PressureIn,VisibilityMPH,Wind Direction,Wind SpeedMPH,Gust SpeedMPH,PrecipitationIn,Events,Conditions,WindDirDegrees,DateUTC
12:53 AM,62.1,46.9,58,29.97,10.0,Calm,Calm,-,N/A,,Overcast,0,2013-08-06 08:53:00
1:53 AM,61.0,48.0,62,29.98,10.0,Calm,Calm,-,N/A,,Mostly Cloudy,0,2013-08-06 09:53:00
2:53 AM,61.0,51.1,70,29.97,10.0,NNW,8.1,-,N/A,,Overcast,340,2013-08-06 10:53:00
3:53 AM,59.0,52.0,78,29.97,10.0,NNW,5.8,-,N/A,,Mostly Cloudy,330,2013-08-06 11:53:00
4:53 AM,57.0,52.0,83,29.97,10.0,Calm,Calm,-,N/A,,Mostly Cloudy,0,2013-08-06 12:53:00
5:53 AM,57.0,53.1,87,29.96,10.0,NW,3.5,-,N/A,,Partly Cloudy,310,2013-08-06 13:53:00
6:53 AM,57.0,53.1,87,29.96,10.0,Calm,Calm,-,N/A,,Mostly Cloudy,0,2013-08-06 14:53:00
7:53 AM,57.0,53.1,87,29.97,10.0,Calm,Calm,-,N/A,,Mostly Cloudy,0,2013-08-06 15:53:00
8:53 AM,60.1,52.0,75,29.96,10.0,NNW,3.5,-,N/A,,Scattered Clouds,330,2013-08-06 16:53:00
9:53 AM,62.1,52.0,70,29.96,10.0,North,4.6,-,N/A,,Clear,10,2013-08-06 17:53:00
10:53 AM,63.0,46.9,56,29.96,10.0,NW,6.9,-,N/A,,Clear,320,2013-08-06 18:53:00
11:53 AM,64.0,51.1,63,29.96,10.0,Calm,Calm,-,N/A,,Partly Cloudy,0,2013-08-06 19:53:00
12:53 PM,66.9,50.0,54,29.96,10.0,NW,4.6,-,N/A,,Clear,310,2013-08-06 20:53:00
1:53 PM,66.9,48.0,51,29.95,10.0,Calm,Calm,-,N/A,,Overcast,0,2013-08-06 21:53:00
2:53 PM,63.0,48.9,60,29.95,10.0,South,8.1,-,0.00,,Overcast,190,2013-08-06 22:53:00
3:53 PM,66.0,48.0,52,29.95,10.0,Calm,Calm,-,N/A,,Mostly Cloudy,0,2013-08-06 23:53:00
4:53 PM,64.9,48.0,54,29.94,10.0,South,6.9,-,N/A,,Overcast,180,2013-08-07 00:53:00
5:53 PM,64.0,48.9,58,29.94,10.0,South,5.8,-,N/A,,Mostly Cloudy,190,2013-08-07 01:53:00
6:53 PM,64.0,48.0,56,29.94,10.0,South,3.5,-,N/A,,Overcast,170,2013-08-07 02:53:00
7:53 PM,61.0,51.1,70,29.94,10.0,SSW,5.8,-,0.01,Rain,Light Rain,200,2013-08-07 03:53:00
8:53 PM,60.1,51.1,72,29.93,10.0,South,9.2,-,0.01,Rain,Light Rain,180,2013-08-07 04:53:00
9:53 PM,60.1,51.1,72,29.93,10.0,South,8.1,-,0.01,Rain,Light Rain,180,2013-08-07 05:53:00
10:53 PM,59.0,51.1,75,29.93,10.0,Calm,Calm,-,0.00,Rain,Light Rain,0,2013-08-07 06:53:00
11:53 PM,57.9,52.0,81,29.92,10.0,Calm,Calm,-,0.01,Rain,Light Rain,0,2013-08-07 07:53:00